TimeCST,TemperatureF,Dew PointF,Humidity,Sea Level PressureIn,VisibilityMPH,Wind Direction,Wind SpeedMPH,Gust SpeedMPH,PrecipitationIn,Events,Conditions,WindDirDegrees,DateUTC
12:15 AM,61.3,54.7,79,29.89,10.0,South,13.8,19.6,N/A,,Mostly Cloudy,190,2013-12-21 06:15:00
12:35 AM,61.2,54.9,80,29.90,10.0,South,10.4,-,N/A,,Overcast,190,2013-12-21 06:35:00
12:55 AM,61.3,55.0,80,29.89,10.0,South,10.4,16.1,N/A,,Overcast,190,2013-12-21 06:55:00
1:15 AM,61.5,55.4,80,29.90,10.0,South,9.2,16.1,N/A,,Overcast,190,2013-12-21 07:15:00
1:35 AM,62.1,55.8,80,29.89,10.0,South,10.4,17.3,N/A,Rain,Light Rain,190,2013-12-21 07:35:00
1:55 AM,61.9,56.1,81,29.88,10.0,SSW,6.9,-,N/A,Rain,Light Rain,200,2013-12-21 07:55:00
2:15 AM,60.8,57.0,87,29.88,7.0,South,8.1,-,0.02,Rain,Rain,180,2013-12-21 08:15:00
2:35 AM,60.1,59.5,98,29.87,4.0,South,8.1,-,0.11,Rain,Heavy Rain,170,2013-12-21 08:35:00
2:55 AM,59.5,59.5,100,29.86,7.0,SSE,6.9,-,0.13,Rain-Thunderstorm,Rain,150,2013-12-21 08:55:00
3:15 AM,59.4,59.4,100,29.84,10.0,SSE,8.1,-,N/A,,Overcast,160,2013-12-21 09:15:00
3:35 AM,59.9,59.5,99,29.83,10.0,South,10.4,-,N/A,Rain-Thunderstorm,Light Thunderstorms and Rain,170,2013-12-21 09:35:00
3:55 AM,60.3,59.5,97,29.82,10.0,South,9.2,16.1,N/A,,Light Drizzle,180,2013-12-21 09:55:00
4:15 AM,60.6,59.7,97,29.81,10.0,South,11.5,19.6,N/A,,Overcast,190,2013-12-21 10:15:00
4:35 AM,61.9,58.5,89,29.81,10.0,South,15.0,25.3,N/A,Thunderstorm,Overcast,190,2013-12-21 10:35:00
4:55 AM,62.8,58.1,85,29.81,7.0,SSW,19.6,27.6,0.01,Rain,Rain,200,2013-12-21 10:55:00
5:15 AM,62.6,58.6,87,29.81,10.0,SSW,12.7,21.9,N/A,,Overcast,200,2013-12-21 11:15:00
5:35 AM,62.8,58.1,85,29.81,10.0,SSW,9.2,-,N/A,,Overcast,200,2013-12-21 11:35:00
5:55 AM,62.6,57.6,84,29.81,10.0,South,12.7,18.4,N/A,,Overcast,190,2013-12-21 11:55:00
6:15 AM,63.1,57.2,81,29.79,10.0,South,13.8,20.7,N/A,,Overcast,190,2013-12-21 12:15:00
6:35 AM,63.5,56.5,78,29.79,10.0,South,13.8,24.2,N/A,,Overcast,180,2013-12-21 12:35:00
6:55 AM,64.0,56.7,77,29.79,10.0,South,16.1,24.2,N/A,,Overcast,190,2013-12-21 12:55:00
7:15 AM,64.4,57.0,77,29.80,10.0,SSW,13.8,21.9,N/A,,Overcast,200,2013-12-21 13:15:00
7:35 AM,64.9,57.4,76,29.79,10.0,South,23.0,29.9,N/A,,Overcast,190,2013-12-21 13:35:00
7:55 AM,65.5,58.1,77,29.78,10.0,South,20.7,27.6,N/A,,Overcast,190,2013-12-21 13:55:00
8:15 AM,65.7,58.5,78,29.78,10.0,South,18.4,32.2,N/A,,Overcast,190,2013-12-21 14:15:00
8:35 AM,66.4,58.8,77,29.78,10.0,SSW,18.4,24.2,N/A,,Mostly Cloudy,200,2013-12-21 14:35:00
8:55 AM,67.3,59.0,75,29.79,10.0,SSW,19.6,31.1,N/A,,Mostly Cloudy,210,2013-12-21 14:55:00
9:15 AM,67.6,59.0,74,29.80,10.0,South,17.3,24.2,N/A,,Overcast,190,2013-12-21 15:15:00
9:35 AM,68.0,59.2,73,29.80,10.0,South,19.6,28.8,N/A,,Overcast,190,2013-12-21 15:35:00
9:55 AM,68.0,59.2,73,29.80,10.0,SSW,19.6,27.6,N/A,,Overcast,200,2013-12-21 15:55:00
10:15 AM,67.5,59.2,75,29.80,10.0,SSW,16.1,26.5,N/A,,Overcast,200,2013-12-21 16:15:00
10:35 AM,67.8,59.5,75,29.80,10.0,South,19.6,27.6,N/A,,Overcast,190,2013-12-21 16:35:00
10:55 AM,67.8,59.9,76,29.78,10.0,South,13.8,24.2,N/A,,Overcast,190,2013-12-21 16:55:00
11:15 AM,67.8,60.3,77,29.78,10.0,South,13.8,21.9,N/A,,Overcast,190,2013-12-21 17:15:00
11:35 AM,67.3,60.8,80,29.78,10.0,SSW,13.8,23.0,N/A,,Overcast,200,2013-12-21 17:35:00
11:55 AM,66.7,60.8,81,29.78,10.0,SSW,13.8,20.7,N/A,,Overcast,200,2013-12-21 17:55:00
12:15 PM,66.4,61.0,83,29.78,10.0,SSW,17.3,25.3,N/A,,Overcast,200,2013-12-21 18:15:00
12:35 PM,65.3,63.5,94,29.78,1.8,SSW,10.4,19.6,N/A,,Drizzle,210,2013-12-21 18:35:00
12:55 PM,64.4,64.4,100,29.78,3.0,SSW,10.4,-,0.01,Rain,Light Rain,210,2013-12-21 18:55:00
1:15 PM,64.8,64.8,100,29.76,7.0,South,11.5,-,N/A,Rain,Rain,190,2013-12-21 19:15:00
1:35 PM,65.5,65.5,100,29.74,10.0,South,11.5,17.3,N/A,,Mostly Cloudy,190,2013-12-21 19:35:00
1:55 PM,66.2,64.6,94,29.73,10.0,South,13.8,24.2,N/A,,Overcast,190,2013-12-21 19:55:00
2:15 PM,66.6,63.7,90,29.72,10.0,South,10.4,19.6,N/A,,Overcast,190,2013-12-21 20:15:00
2:35 PM,66.2,64.9,96,29.72,10.0,SSW,10.4,-,N/A,Rain,Light Rain,200,2013-12-21 20:35:00
2:55 PM,66.4,63.5,90,29.72,10.0,South,10.4,-,N/A,,Overcast,190,2013-12-21 20:55:00
3:15 PM,67.3,61.9,83,29.71,10.0,South,8.1,-,N/A,,Overcast,170,2013-12-21 21:15:00
3:35 PM,67.5,62.1,83,29.71,10.0,South,9.2,20.7,N/A,,Scattered Clouds,170,2013-12-21 21:35:00
3:55 PM,67.3,62.2,84,29.71,10.0,South,16.1,20.7,N/A,,Mostly Cloudy,170,2013-12-21 21:55:00
4:15 PM,67.1,63.0,87,29.69,10.0,South,12.7,18.4,N/A,,Scattered Clouds,170,2013-12-21 22:15:00
4:35 PM,67.1,63.1,87,29.68,10.0,South,11.5,17.3,N/A,,Scattered Clouds,170,2013-12-21 22:35:00
4:55 PM,67.1,61.7,83,29.68,10.0,South,10.4,18.4,N/A,,Mostly Cloudy,170,2013-12-21 22:55:00
5:15 PM,67.1,61.7,83,29.68,10.0,SSE,12.7,21.9,N/A,,Overcast,160,2013-12-21 23:15:00
5:35 PM,66.7,61.9,84,29.68,10.0,South,9.2,18.4,N/A,,Overcast,180,2013-12-21 23:35:00
5:55 PM,66.9,61.9,84,29.67,10.0,South,11.5,17.3,N/A,,Overcast,170,2013-12-21 23:55:00
6:15 PM,67.6,61.7,81,29.65,10.0,South,11.5,18.4,N/A,Rain,Light Rain,170,2013-12-22 00:15:00
6:35 PM,68.4,61.9,80,29.63,10.0,South,11.5,20.7,N/A,,Mostly Cloudy,170,2013-12-22 00:35:00
6:55 PM,69.1,61.9,78,29.62,10.0,South,15.0,23.0,N/A,,Mostly Cloudy,170,2013-12-22 00:55:00
7:15 PM,69.4,61.9,77,29.62,10.0,South,18.4,24.2,N/A,,Scattered Clouds,170,2013-12-22 01:15:00
7:35 PM,70.0,62.1,76,29.62,10.0,South,13.8,27.6,N/A,,Mostly Cloudy,180,2013-12-22 01:35:00
7:55 PM,70.5,62.1,74,29.62,10.0,South,15.0,28.8,N/A,,Overcast,180,2013-12-22 01:55:00
8:15 PM,71.1,61.9,73,29.62,10.0,South,18.4,26.5,N/A,,Overcast,190,2013-12-22 02:15:00
8:55 PM,72.9,61.9,68,29.60,10.0,South,21.9,34.5,N/A,,Overcast,180,2013-12-22 02:55:00
9:15 PM,72.9,61.9,68,29.61,10.0,SSW,18.4,29.9,N/A,,Overcast,200,2013-12-22 03:15:00
9:35 PM,73.0,61.7,67,29.60,10.0,South,18.4,31.1,N/A,,Overcast,190,2013-12-22 03:35:00
10:55 PM,-9999,-9999,N/A,29.70,-9999.0,SSW,8.1,-,N/A,Thunderstorm,Thunderstorm,200,2013-12-22 04:55:00
11:15 PM,60.1,60.1,100,29.68,10.0,South,8.1,-,0.05,Rain-Thunderstorm,Heavy Thunderstorms and Rain,190,2013-12-22 05:15:00
11:35 PM,60.3,60.3,100,29.69,10.0,South,11.5,-,0.08,Rain,Rain,190,2013-12-22 05:35:00
11:55 PM,60.1,60.1,100,29.69,10.0,South,9.2,-,0.12,Rain,Light Rain,180,2013-12-22 05:55:00